Terminal Aerodrome Forecast
Issued by NWS Twin Cities, MN

Home | Current Version | Previous Version | Text Only | Print | Product List | Glossary Off
Versions: 1 2 3 4 5 6 7 8 9 10 11 12 13 14 15 16 17 18 19 20 21 22 23 24 25 26 27 28 29 30

000
FTUS43 KMPX 301400 AAA
TAFMSP
TAF AMD
KMSP 301425Z 3014/0118 10011G16KT P6SM OVC011
      TEMPO 3017/3018 BKN016
     FM301800 11012KT P6SM SCT020 BKN250
     FM302000 12012G19KT P6SM SCT025 BKN050
     FM010100 13011KT P6SM VCSH BKN025 OVC050
     FM010900 14011KT 6SM -SHRA BR BKN008 OVC015=

USA.gov is the U.S. government's official web portal to all federal, state and local government web resources and services.